FW0412 Weather Reports


time (UTC)temp
C
wind
direction
speed
KPH
gust
KPH
rain 1hr
cm
rain 24hr
cm
rain mn
cm
humidity
%
barometer
mb
20260503224539 21 291 12.9 12.9 0.00 0.05 0.00 47 1016.1
20260503223516 21 255 9.7 14.5 0.00 0.05 0.00 47 1016.1
20260503222521 21 248 9.7 14.5 0.00 0.05 0.00 47 1016.3
20260503221525 21 257 9.7 12.9 0.00 0.05 0.00 48 1016.3
20260503220529 20 270 9.7 12.9 0.00 0.05 0.00 48 1016.4
20260503215516 21 260 8.0 12.9 0.00 0.05 0.00 50 1016.4
20260503214521 21 262 11.3 14.5 0.00 0.05 0.00 49 1016.4
20260503213525 21 271 11.3 14.5 0.00 0.05 0.00 48 1016.4
20260503212529 21 258 9.7 12.9 0.00 0.05 0.00 48 1016.4
20260503211516 21 247 8.0 14.5 0.00 0.05 0.00 48 1016.3
20260503210520 20 241 8.0 12.9 0.00 0.05 0.00 49 1016.4
20260503205525 20 225 8.0 12.9 0.00 0.05 0.00 50 1016.5
20260503204529 21 246 9.7 12.9 0.00 0.05 0.00 48 1016.7
20260503203515 21 247 9.7 14.5 0.00 0.05 0.00 48 1016.7
20260503202519 21 264 8.0 11.3 0.00 0.05 0.00 49 1016.7
20260503201524 21 260 9.7 14.5 0.00 0.05 0.00 48 1016.7
20260503200529 20 263 9.7 12.9 0.00 0.05 0.00 48 1016.8
20260503195515 21 249 8.0 11.3 0.00 0.05 0.00 46 1016.8
20260503194519 21 305 6.4 8.0 0.00 0.05 0.00 48 1016.9
20260503193524 21 241 9.7 14.5 0.00 0.05 0.00 46 1016.9
20260503192528 20 289 6.4 9.7 0.00 0.05 0.00 48 1017.1
20260503191552 20 263 3.2 8.0 0.00 0.05 0.00 49 1017.2
20260503190519 20 330 4.8 9.7 0.00 0.05 0.00 49 1017.2
20260503185544 18 241 4.8 9.7 0.00 0.05 0.00 52 1017.3
20260503184548 18 281 4.8 9.7 0.00 0.05 0.00 53 1017.4
20260503183533 18 290 4.8 9.7 0.00 0.05 0.00 54 1017.5
20260503182519 18 270 4.8 8.0 0.00 0.05 0.00 56 1017.5
20260503181524 18 342 6.4 9.7 0.00 0.05 0.00 57 1017.6
20260503180529 17 250 6.4 11.3 0.00 0.05 0.00 59 1017.7
20260503175535 16 267 4.8 6.4 0.00 0.05 0.00 66 1017.7
20260503174519 15 301 6.4 11.3 0.00 0.05 0.00 69 1017.8
20260503173544 15 256 6.4 8.0 0.00 0.05 0.00 72 1017.7
20260503172522 15 264 6.4 11.3 0.00 0.05 0.00 75 1017.7
20260503171515 15 269 6.4 9.7 0.00 0.05 0.00 73 1017.6
20260503170519 15 290 6.4 8.0 0.00 0.05 0.00 73 1017.4
20260503150519 13 0.0 0.0 0.00 0.05 0.00 90 1016.7
20260503130519 11 0.0 0.0 0.00 0.05 0.00 97 1015.7
20260503110520 11 0.0 0.0 0.00 0.05 0.00 99 1015.5
20260503081525 11 0.0 0.0 0.00 0.05 0.00 99 1016.0
20260503080530 11 0.0 0.0 0.00 0.03 0.00 99 1016.1
20260503072530 11 0.0 0.0 0.00 0.03 0.00 99 1015.9
20260503071516 11 0.0 0.0 0.00 0.03 0.00 99 1015.8
20260503070520 11 94 3.2 4.8 0.00 0.03 0.00 99 1015.8
20260503054520 9 0.0 0.0 0.00 0.03 0.03 99 1015.5
20260503053524 8 0.0 0.0 0.00 0.03 0.03 99 1015.4
20260503052609 8 330 0.0 1.6 0.00 0.03 0.03 99 1015.3
20260503051515 8 0.0 0.0 0.00 0.03 0.03 97 1015.3
20260503050539 8 0.0 0.0 0.00 0.03 0.03 95 1015.2
20260503045524 9 0.0 0.0 0.00 0.03 0.03 94 1015.0
20260503044528 9 0.0 0.0 0.00 0.03 0.03 94 1015.1
20260503043527 10 0.0 0.0 0.00 0.03 0.03 94 1015.0
20260503042519 10 0.0 0.0 0.00 0.03 0.03 94 1015.0
20260503041544 10 0.0 0.0 0.00 0.03 0.03 93 1015.0
20260503040522 10 0.0 0.0 0.00 0.03 0.03 93 1015.0
20260503035520 11 0.0 0.0 0.03 0.03 0.03 93 1014.8
20260503034519 11 0.0 0.0 0.03 0.03 0.03 93 1014.8
20260503033517 11 0.0 0.0 0.03 0.03 0.03 92 1014.8
20260503032516 12 326 0.0 3.2 0.03 0.03 0.03 91 1014.8
20260503031519 12 257 1.6 3.2 0.03 0.03 0.03 89 1014.8
20260503030524 12 266 3.2 3.2 0.03 0.03 0.03 88 1014.5
20260503025528 12 256 3.2 4.8 0.00 0.00 0.00 86 1014.4
20260503024553 13 268 3.2 6.4 0.00 0.00 0.00 83 1014.2
20260503023518 14 264 4.8 6.4 0.00 0.00 0.00 79 1014.2
20260503022543 15 267 8.0 11.3 0.00 0.00 0.00 76 1014.2
20260503021528 15 247 6.4 8.0 0.00 0.00 0.00 75 1014.2
20260503020533 16 294 4.8 6.4 0.00 0.00 0.00 74 1014.2
20260503015519 16 271 4.8 6.4 0.00 0.00 0.00 71 1014.2
20260503014604 16 251 4.8 9.7 0.00 0.00 0.00 71 1014.2
20260503013527 17 255 6.4 9.7 0.00 0.00 0.00 66 1014.2
20260503012532 18 286 6.4 8.0 0.00 0.00 0.00 65 1014.2
20260503011539 18 237 6.4 9.7 0.00 0.00 0.00 65 1014.2
20260503010523 18 269 6.4 9.7 0.00 0.00 0.00 63 1014.2
20260503005527 18 258 6.4 9.7 0.00 0.00 0.00 64 1014.4
20260503004532 19 263 8.0 11.3 0.00 0.00 0.00 63 1014.4
20260503003518 20 263 8.0 11.3 0.00 0.00 0.00 62 1014.3
20260503002523 20 265 6.4 9.7 0.00 0.00 0.00 61 1014.2
20260503001527 20 265 6.4 9.7 0.00 0.00 0.00 61 1014.2
20260503000612 20 254 8.0 12.9 0.00 0.00 0.00 61 1014.3
20260502235518 21 273 8.0 11.3 0.00 0.00 0.00 59 1014.3
20260502234522 20 261 6.4 9.7 0.00 0.00 0.00 59 1014.3
20260502233527 21 250 8.0 11.3 0.00 0.00 0.00 58 1014.4
20260502232525 20 252 6.4 12.9 0.00 0.00 0.00 60 1014.5
20260502231558 21 265 6.4 9.7 0.00 0.00 0.00 59 1014.7
20260502230522 21 266 6.4 9.7 0.00 0.00 0.00 58 1014.8
20260502225520 21 257 6.4 11.3 0.00 0.00 0.00 58 1014.9